Regional Weather Roundup
Issued by NWS

Home | Current Version | Previous Version | Graphics & Text | Print | Product List | Glossary Off
Versions: 1 2 3 4 5 6 7 8 9 10 11 12 13 14 15 16 17 18 19 20 21 22 23 24 25 26 27 28 29 30 31 32 33 34 35 36 37 38 39 40 41 42 43 44 45 46 47 48 49 50

793
ASUS44 KJAN 020703
RWRMS

MISSISSIPPI HOURLY WEATHER ROUNDUP
NATIONAL WEATHER SERVICE JACKSON MS
200 AM CDT TUE SEP 02 2014

NOTE: "FAIR: INDICATES FEW OR NO CLOUDS BELOW 12,000 FEET WITH NO
SIGNIFICANT WEATHER AND/OR OBSTRUCTIONS TO VISIBILITY.

MSZ001>002-007>008-010>013-018>021-025>028-034>036-020800-
NORTHWEST MISSISSIPPI

CITY           SKY/WX    TMP DP  RH WIND       PRES   REMARKS
CLARKSDALE     FAIR      73  73 100 CALM      30.02S
CLEVELAND      FAIR      74  74  99 S5        30.01S
GREENWOOD      PTCLDY    75  72  90 S6        30.02R
GREENVILLE     CLEAR     75  73  93 SE3       30.01R
GRENADA        FAIR      75  72  88 CALM      30.03R
OLIVE BRANCH   CLEAR     75  75 100 S9        30.01S
OXFORD         FAIR      75  70  83 SW6       30.05S
TUNICA         SUNNY     73  70  88 S6        30.01F
$$

MSZ003>006-009-014>017-022>024-029>033-037>039-020800-
NORTHEAST MISSISSIPPI

CITY           SKY/WX    TMP DP  RH WIND       PRES   REMARKS
BELMONT        FAIR      76  71  84 SW5       30.06R
COLUMBUS AFB   PTCLDY    76  71  87 S3        30.04R
CORINTH        FAIR      75  72  88 CALM      30.02S
GOLDN TRIANGLE PTCLDY    79  70  73 SW3       30.04R
STARKVILLE     FAIR      73  70  88 CALM      30.04R
TUPELO         CLEAR     76  70  82 SW5       30.04R
$$

MSZ040-058-020800-
CENTRAL MISSISSIPPI

CITY           SKY/WX    TMP DP  RH WIND       PRES   REMARKS
JACKSON INTL   PTCLDY    76  73  91 S5        30.02F
JACKSON HAWKNS PTCLDY    77  73  87 S8        30.03S
MERIDIAN KEY   CLEAR     74  72  93 CALM      30.04S
MERIDIAN NAS   PTCLDY    74  71  91 CALM      30.04S
RAYMOND        FAIR      73  68  83 E3        30.02S
VICKSBURG      PTCLDY    77  73  87 S7        30.01R
$$

MSZ059>079-020800-
SOUTH MISSISSIPPI

CITY           SKY/WX    TMP DP  RH WIND       PRES   REMARKS
BROOKHAVEN     FAIR      73  73 100 CALM      30.04S FOG
HATTIESBURG    CLEAR     78  74  87 CALM      30.04S
MCCOMB         PTCLDY    75  74  96 SE5       30.03R
NATCHEZ        CLEAR     75  72  88 SE6       30.01S
PINE BELT      CLEAR     75  72  88 CALM      30.05S
$$

MSZ080>082-020800-
COASTAL MISSISSIPPI

CITY           SKY/WX    TMP DP  RH WIND       PRES   REMARKS
BILOXI         PTCLDY    83  75  76 S13       30.01F HX  91
PASCAGOULA     PTCLDY    76  75  97 CALM      30.02F
GULFPORT       PTCLDY    82  75  79 S7        30.01F
$$



USA.gov is the U.S. government's official web portal to all federal, state and local government web resources and services.